Volver al catálogo

STARLINK-3562

ActivoComunicacionesVLEO
NORAD 51861·PAYLOAD·🇺🇸 United States

Lanzado Mar 3, 2022 desde Cape Canaveral Space Force Station

Loading…

Próximos Pases (próximas 24 horas)

TLE

ActualizadoSource: CelesTrak SupGP

Época: Sep 14, 2026, 21:47 UTC

1 51861C 22022K   26257.90812500  .00030153  00000+0  89083-3 0  2575
2 51861  53.1587 229.5124 0001339  97.4386 193.6741 15.34377735    17

Sigue STARLINK-3562 en tiempo real con AllMySat

Download on the App Store